Regional Weather Roundup
Issued by NWS

Home | Current Version | Previous Version | Graphics & Text | Print | Product List | Glossary On
Versions: 1 2 3 4 5 6 7 8 9 10 11 12 13 14 15 16 17 18 19 20 21 22 23 24 25 26 27 28 29 30 31 32 33 34 35 36 37 38 39 40 41 42 43 44 45 46 47 48 49 50
000
ASUS45 KBOU 201707
RWRCO

WEATHER ROUNDUP FOR COLORADO
NATIONAL WEATHER SERVICE DENVER/BOULDER CO
1100 AM MDT MON OCT 20 2014

NOTE: "FAIR" INDICATES FEW OR NO CLOUDS BELOW 12000 FEET WITH NO
SIGNIFICANT WEATHER AND/OR OBSTRUCTIONS TO VISIBILITY.

COZ001>005-013-030-031-201800-
...NORTHWEST COLORADO...

CITY           SKY/WX    TMP DP  RH WIND       PRES   REMARKS
CRAIG          MOSUNNY   57  38  48 CALM      30.22F
HAYDEN         PTSUNNY   55  34  44 SE5       30.23F
MEEKER         MOSUNNY   57  36  45 S3        30.22F
MOUNT WERNER   NOT AVBL
STEAMBOAT SPGS MOSUNNY   55  34  46 CALM      30.24F
WALDEN         SUNNY     52  32  46 CALM      30.30F
$$

COZ006>008-011-201800-
...WEST CENTRAL VALLEYS...

CITY           SKY/WX    TMP DP  RH WIND       PRES   REMARKS
GRAND JUNCTION SUNNY     64  43  46 SE10      30.17S
MONTROSE       SUNNY     62  38  40 CALM      30.23F
EAGLE          MOSUNNY   45  36  70 CALM      30.31F
RIFLE          SUNNY     56  37  49 VRB5      30.21F
DELTA          MOSUNNY   61  39  44 CALM      30.21F
NUCLA          PTSUNNY   55  37  50 CALM      30.27F
$$

COZ017>023-064>068-201800-
...SOUTHWEST COLORADO...

CITY           SKY/WX    TMP DP  RH WIND       PRES   REMARKS
DURANGO        MOSUNNY   56  41  57 CALM      30.27F
CORTEZ         SUNNY     61  41  47 CALM      30.23F
PAGOSA SPRINGS MOSUNNY   57  38  50 CALM      30.32F
TELLURIDE      MOSUNNY   54  35  48 CALM      30.37F
WOLF CREEK PAS CLOUDY    36  30  80 W10       30.52R
$$

COZ009-010-012-014-032>034-037-058>063-201800-
...CENTRAL COLORADO...

CITY           SKY/WX    TMP DP  RH WIND       PRES   REMARKS
ASPEN          MOSUNNY   55  36  48 N8        30.28F
BUENA VISTA    SUNNY     53  34  49 CALM      30.34F
COPPER MTN     CLOUDY    45  28  53 S13G18    30.51S
BERTHOUD PASS  FAIR      37  36  93 MISG      30.55S
COTTONWOOD PAS SUNNY     54  32  43 SE6       30.42S
GUNNISON       SUNNY     48  34  57 CALM      30.36F
KREMMLING      SUNNY     50  30  46 CALM        N/A
LEADVILLE      CLOUDY    45  30  55 CALM      30.41S
SALIDA         SUNNY     53  38  55 SE3       30.40F
SUNLIGHT       SUNNY     52  34  50 CALM      30.46S
WILKERSON PASS NOT AVBL
$$

COZ069>075-201800-
...SAN LUIS VALLEY/SANGRE DE CRISTO MOUNTAINS...

CITY           SKY/WX    TMP DP  RH WIND       PRES   REMARKS
ALAMOSA        SUNNY     56  37  49 VRB6      30.32F
LA VETA PASS   SUNNY     54  32  43 N5        30.44S
SAGUACHE       SUNNY     54  36  50 SW5       30.34S
$$

COZ035-036-038>040-201800-
...NORTHERN COLORADO FRONT RANGE...

CITY           SKY/WX    TMP DP  RH WIND       PRES   REMARKS
DENVER INTL AP MOSUNNY   70  39  32 S3        30.17F
DMNS CITY PARK   N/A     69  37  30 S7G13     30.14F
AURORA         MOSUNNY   69  36  30 S13       30.18F
FRONT RANGE AP MOSUNNY   72  37  28 S13G20    30.18
ERIE MUNI ARPT SUNNY     66  34  30 E3        30.15S
BOULDER MUN AP SUNNY     61  36  39 CALM      30.15F
CENTENNIAL     MOSUNNY   69  36  29 S10       30.19F
BROOMFIELD     MOSUNNY   64  36  34 CALM      30.18F
FORT COLLINS   SUNNY     61  39  44 E3        30.18S
LONGMONT       SUNNY     65  36  33 CALM      30.17F
$$

COZ041-046-047-076>085-087-088-201800-
...PIKES PEAK/PALMER DIVIDE AND SOUTHERN FOOTHILLS...

CITY           SKY/WX    TMP DP  RH WIND       PRES   REMARKS
COLO. SPRINGS  MOSUNNY   63  38  39 SE12      30.26S
A. F. ACADEMY  SUNNY     63  37  39 S9        30.26S
ELLICOTT       NOT AVBL
FALCON         SUNNY     62  34  35 S15       30.30S
FORT CARSON    SUNNY     63  40  43 SE9       30.24S
LIMON          SUNNY     65  36  34 S10       30.22S
MONUMENT HILL  SUNNY     63  32  31 S15       30.26S
TRINIDAD       SUNNY     64  37  36 CALM      30.24F
$$

COZ042>045-048>051-090-091-201800-
...NORTHEAST COLORADO...

CITY           SKY/WX    TMP DP  RH WIND       PRES   REMARKS
GREELEY ARPT   SUNNY     57  37  47 CALM      30.17F
AKRON          SUNNY     71  34  25 S15       30.17S
BURLINGTON     SUNNY     69  41  36 S14G22    30.19R
WRAY           SUNNY     73  35  25 SE8       30.16S
STERLING       SUNNY     68  45  42 SW6       30.14F
HOLYOKE        SUNNY     73  41  31 S8        30.15F
FORT MORGAN    SUNNY     64  40  41 S6        30.16F
$$

COZ086-089-092>099-201800-
...SOUTHEAST COLORADO...

CITY           SKY/WX    TMP DP  RH WIND       PRES   REMARKS
PUEBLO         SUNNY     63  40  42 CALM      30.20F
LA JUNTA       SUNNY     65  44  46 SW3       30.19F
LAMAR          SUNNY     63  46  54 NW3       30.17F
SPRINGFIELD      N/A     67  47  48 NE9       30.18S
$$


USA.gov is the U.S. government's official web portal to all federal, state and local government web resources and services.